Location: Cañada de la Miga
(34.7595°N, 106.2317°W)
Time: 09:46:46
(UTC+00:00)

A-11 Canister half - Pass Details

Date: 08 December 2021
Orbit: 1516 x 1684 km, 47.2° (Epoch: 16 January)

Event Time Altitude Azimuth Distance (km) Brightness Sun altitude
Exits shadow 11:32:28 12° 212° (SSW) 3,590 10.7 -29.6°
Maximum altitude 11:41:14 59° 136° (SE) 1,781 9.4 -27.8°
Drops below altitude 10° 11:50:45 10° 60° (ENE) 3,852 11.7 -25.9°
Sets 11:53:58 0° 57° (ENE) 4,863 12.3 -25.2°
